User: anonymous   Login
Location: Melbourne
(37.8170°S, 144.9670°E)
Time: 10:53:02
(UTC+11:00)
Language:

CZ-3 R/B - Orbit

View from above orbital plane
View from above orbital plane
View from above satellite
View from above satellite

Ground track
Ground track

The orbit data is extracted from the following two-line orbital elements,

1 29517U 06048B   16038.42456358  .00078105 -10135-7  10175-2 0  9992
2 29517  28.4440 204.8703 4609247  79.5090 327.6784  6.44843353134380
Epoch (UTC): 07 February 2016 10:11:22
Eccentricity: 0.4609247
inclination: 28.4440°
perigee height: 194 km
apogee height: 11434 km
right ascension of ascending node: 204.8703°
argument of perigee: 79.5090°
revolutions per day: 6.44843353
mean anomaly at epoch: 327.6784°
orbit number at epoch: 13438

The dashed part of the orbit path shows where the satellite is in the earth's shadow,  

DLR